Location: Bocchiglicro
(39.4167°N, 16.7500°E)
Time: 10:56:23
(UTC+00:00)

NOSS 3-1 (A) - Pass Details

Date: 07 June 2020
Orbit: 755 x 1458 km, 63.4° (Epoch: 16 June)

Event Time Altitude Azimuth Distance (km) Brightness Sun altitude
Rises 01:18:37 0° 325° (NW) 4,031 7.0 -19.0°
Reaches altitude 10° 01:21:11 10° 326° (NW) 3,158 6.4 -18.7°
Maximum altitude 01:29:00 87° 239° (WSW) 1,350 4.1 -17.8°
Drops below altitude 10° 01:37:50 10° 150° (SSE) 3,539 6.2 -16.7°
Sets 01:40:52 0° 150° (SSE) 4,539 6.8 -16.3°
